• In Uzbekistan
  • List of Countries
  • For 7 days
  • Water Temperature
  • Weather Map
  • Weather Widgets
  • user-avatar
    Login

    Hourly Weather Kapan

    Today, 6 April, Monday

    Time Temperature Precipitation Wind Pressure Humidity
    00:00 +10°C° 0 mm 2 mps 685 mmHg 68%
    01:00 +10°C° 0 mm 2 mps 684 mmHg 67%
    02:00 +10°C° 0 mm 2 mps 684 mmHg 66%
    03:00 +10°C° 0 mm 2 mps 684 mmHg 67%
    04:00 +10°C° 0 mm 2 mps 684 mmHg 67%
    05:00 +10°C° 0 mm 2 mps 684 mmHg 68%
    06:00 +10°C° 0 mm 2 mps 683 mmHg 69%
    07:00 +13°C° 0 mm 2 mps 684 mmHg 66%
    08:00 +14°C° 0 mm 2 mps 684 mmHg 63%
    09:00 +16°C° 0 mm 2 mps 684 mmHg 61%
    10:00 +16°C° 0.1 mm 2 mps 684 mmHg 61%
    11:00 +16°C° 0.1 mm 2 mps 684 mmHg 62%
    12:00 +17°C° 0.1 mm 3 mps 685 mmHg 62%
    13:00 +17°C° 0.2 mm 3 mps 684 mmHg 65%
    14:00 +16°C° 0.2 mm 2 mps 684 mmHg 67%
    15:00 +16°C° 0.2 mm 2 mps 684 mmHg 70%
    16:00 +15°C° 0.2 mm 2 mps 684 mmHg 76%
    17:00 +14°C° 0.2 mm 2 mps 684 mmHg 82%
    18:00 +13°C° 0.2 mm 1 mps 684 mmHg 89%
    19:00 +12°C° 0.4 mm 1 mps 684 mmHg 91%
    20:00 +10°C° 0.4 mm 2 mps 684 mmHg 93%
    21:00 +9°C° 0.4 mm 2 mps 684 mmHg 95%
    22:00 +8°C° 3 mm 2 mps 684 mmHg 96%
    23:00 +7°C° 3 mm 3 mps 684 mmHg 96%

    Tomorrow, 7 April, Tuesday

    Time Temperature Precipitation Wind Pressure Humidity
    00:00 +5°C° 3 mm 3 mps 684 mmHg 96%
    01:00 +4°C° 1.8 mm 3 mps 684 mmHg 96%
    02:00 +3°C° 1.8 mm 3 mps 684 mmHg 96%
    03:00 +4°C° 1.8 mm 2 mps 684 mmHg 97%
    04:00 +3°C° 1.1 mm 2 mps 684 mmHg 96%
    05:00 +3°C° 1.1 mm 2 mps 685 mmHg 96%
    06:00 +2°C° 1.1 mm 2 mps 685 mmHg 95%
    07:00 +2°C° 0.3 mm 2 mps 685 mmHg 95%
    08:00 +2°C° 0.3 mm 2 mps 685 mmHg 94%
    09:00 +1°C° 0.3 mm 3 mps 686 mmHg 93%
    10:00 +2°C° 0.5 mm 3 mps 686 mmHg 94%
    11:00 +2°C° 0.5 mm 3 mps 686 mmHg 95%
    12:00 +2°C° 0.5 mm 3 mps 686 mmHg 95%
    13:00 +1°C° 0.8 mm 3 mps 686 mmHg 95%
    14:00 +1°C° 0.8 mm 3 mps 686 mmHg 95%
    15:00 +1°C° 0.8 mm 3 mps 686 mmHg 95%
    16:00 +2°C° 0.3 mm 2 mps 686 mmHg 95%
    17:00 +1°C° 0.3 mm 2 mps 686 mmHg 96%
    18:00 +1°C° 0.3 mm 2 mps 686 mmHg 96%
    19:00 +1°C° 0.3 mm 2 mps 687 mmHg 96%
    20:00 -1°C° 0.3 mm 2 mps 687 mmHg 96%
    21:00 +1°C° 0.3 mm 1 mps 688 mmHg 96%
    22:00 -1°C° 0.3 mm 2 mps 688 mmHg 96%
    23:00 -1°C° 0.3 mm 2 mps 689 mmHg 96%

    Day after tomorrow, 8 April, Wednesday

    Time Temperature Precipitation Wind Pressure Humidity
    00:00 -2°C° 0.3 mm 2 mps 689 mmHg 96%
    01:00 -2°C° 0.3 mm 2 mps 689 mmHg 96%
    02:00 0°C° 0.3 mm 1 mps 689 mmHg 95%
    03:00 -1°C° 0.3 mm 1 mps 689 mmHg 95%
    04:00 -1°C° 0.2 mm 1 mps 690 mmHg 94%
    05:00 -1°C° 0.2 mm 1 mps 690 mmHg 94%
    06:00 -1°C° 0.2 mm 1 mps 691 mmHg 93%
    07:00 -1°C° 0.1 mm 1 mps 691 mmHg 93%
    08:00 -2°C° 0.1 mm 2 mps 691 mmHg 92%
    09:00 -1°C° 0.1 mm 2 mps 691 mmHg 91%
    10:00 +1°C° 0.1 mm 2 mps 691 mmHg 91%
    11:00 +1°C° 0.1 mm 2 mps 691 mmHg 90%
    12:00 +2°C° 0.1 mm 2 mps 691 mmHg 90%
    13:00 +2°C° 0.1 mm 2 mps 690 mmHg 88%
    14:00 +3°C° 0.1 mm 2 mps 689 mmHg 87%
    15:00 +3°C° 0.1 mm 2 mps 689 mmHg 85%
    16:00 +2°C° 0 mm 2 mps 689 mmHg 87%
    17:00 +3°C° 0 mm 1 mps 688 mmHg 88%
    18:00 +3°C° 0 mm 1 mps 688 mmHg 90%
    19:00 +2°C° 0 mm 1 mps 688 mmHg 90%
    20:00 +2°C° 0 mm 1 mps 688 mmHg 90%
    21:00 0°C° 0 mm 0 mps 688 mmHg 90%
    22:00 0°C° 0 mm 0 mps 687 mmHg 89%
    23:00 0°C° 0 mm 0 mps 687 mmHg 88%

    9 April, Thursday

    Time Temperature Precipitation Wind Pressure Humidity
    00:00 0°C° 0 mm 0 mps 687 mmHg 87%
    01:00 0°C° 0 mm 0 mps 686 mmHg 86%
    02:00 0°C° 0 mm 0 mps 686 mmHg 85%
    03:00 0°C° 0 mm 0 mps 685 mmHg 85%
    04:00 0°C° 0 mm 0 mps 685 mmHg 85%
    05:00 0°C° 0 mm 0 mps 685 mmHg 86%
    06:00 0°C° 0 mm 0 mps 685 mmHg 86%
    07:00 +2°C° 0 mm 0 mps 684 mmHg 87%
    08:00 +4°C° 0 mm 1 mps 684 mmHg 87%
    09:00 +5°C° 0 mm 1 mps 684 mmHg 88%
    10:00 +6°C° 0 mm 1 mps 684 mmHg 87%
    11:00 +7°C° 0 mm 1 mps 683 mmHg 86%
    12:00 +8°C° 0 mm 1 mps 683 mmHg 85%
    13:00 +7°C° 0 mm 2 mps 682 mmHg 85%
    14:00 +7°C° 0 mm 2 mps 682 mmHg 85%
    15:00 +7°C° 0 mm 2 mps 681 mmHg 85%
    16:00 +7°C° 0 mm 2 mps 681 mmHg 87%
    17:00 +6°C° 0 mm 2 mps 681 mmHg 89%
    18:00 +7°C° 0 mm 1 mps 681 mmHg 90%
    19:00 +6°C° 0 mm 1 mps 682 mmHg 91%
    20:00 +6°C° 0 mm 1 mps 682 mmHg 92%
    21:00 +6°C° 0 mm 1 mps 682 mmHg 93%
    22:00 +5°C° 0 mm 1 mps 682 mmHg 93%
    23:00 +5°C° 0 mm 1 mps 682 mmHg 93%

    10 April, Friday

    Time Temperature Precipitation Wind Pressure Humidity
    00:00 +5°C° 0 mm 1 mps 681 mmHg 93%
    01:00 +4°C° 0 mm 0 mps 681 mmHg 93%
    02:00 +3°C° 0 mm 0 mps 681 mmHg 92%
    03:00 +3°C° 0 mm 0 mps 681 mmHg 92%
    04:00 +3°C° 0 mm 0 mps 681 mmHg 90%
    05:00 +3°C° 0 mm 0 mps 681 mmHg 89%
    06:00 +3°C° 0 mm 0 mps 681 mmHg 88%
    07:00 +5°C° 0 mm 1 mps 681 mmHg 85%
    08:00 +7°C° 0 mm 1 mps 681 mmHg 83%
    09:00 +7°C° 0 mm 2 mps 682 mmHg 81%
    10:00 +7°C° 0 mm 2 mps 681 mmHg 80%
    11:00 +8°C° 0 mm 2 mps 681 mmHg 78%
    12:00 +9°C° 0 mm 2 mps 681 mmHg 77%
    13:00 +9°C° 0 mm 2 mps 680 mmHg 77%
    14:00 +9°C° 0 mm 2 mps 680 mmHg 77%
    15:00 +9°C° 0 mm 2 mps 680 mmHg 77%
    16:00 +9°C° 0 mm 2 mps 679 mmHg 81%
    17:00 +8°C° 0 mm 2 mps 679 mmHg 84%
    18:00 +8°C° 0 mm 2 mps 679 mmHg 88%
    19:00 +8°C° 0.1 mm 1 mps 679 mmHg 90%
    20:00 +8°C° 0.1 mm 1 mps 679 mmHg 92%
    21:00 +7°C° 0.1 mm 1 mps 680 mmHg 94%
    22:00 +6°C° 0.4 mm 0 mps 679 mmHg 94%
    23:00 +6°C° 0.4 mm 0 mps 679 mmHg 94%

    11 April, Saturday

    Time Temperature Precipitation Wind Pressure Humidity
    00:00 +6°C° 0.4 mm 0 mps 679 mmHg 94%
    01:00 +6°C° 0 mm 0 mps 679 mmHg 93%
    02:00 +6°C° 0 mm 0 mps 679 mmHg 93%
    03:00 +6°C° 0 mm 0 mps 679 mmHg 93%
    04:00 +6°C° 0 mm 0 mps 679 mmHg 93%
    05:00 +6°C° 0 mm 0 mps 679 mmHg 93%
    06:00 +6°C° 0 mm 0 mps 679 mmHg 93%
    07:00 +7°C° 0 mm 1 mps 679 mmHg 92%
    08:00 +8°C° 0 mm 1 mps 679 mmHg 92%
    09:00 +8°C° 0 mm 2 mps 679 mmHg 92%
    10:00 +9°C° 0.1 mm 2 mps 679 mmHg 89%
    11:00 +10°C° 0.1 mm 2 mps 679 mmHg 86%
    12:00 +10°C° 0.1 mm 2 mps 679 mmHg 83%
    13:00 +10°C° 0.1 mm 2 mps 679 mmHg 83%
    14:00 +12°C° 0.1 mm 2 mps 679 mmHg 83%
    15:00 +12°C° 0.1 mm 2 mps 678 mmHg 83%
    16:00 +10°C° 0.1 mm 2 mps 678 mmHg 86%
    17:00 +9°C° 0.1 mm 2 mps 678 mmHg 88%
    18:00 +8°C° 0.1 mm 2 mps 678 mmHg 91%
    19:00 +8°C° 0 mm 2 mps 679 mmHg 92%
    20:00 +9°C° 0 mm 1 mps 679 mmHg 92%
    21:00 +9°C° 0 mm 1 mps 680 mmHg 93%
    22:00 +8°C° 0 mm 1 mps 680 mmHg 93%
    23:00 +8°C° 0 mm 1 mps 680 mmHg 94%
    Show more